DW7144 Weather Reports


Display with metric or nautical units.
time (UTC)temp
F
wind
direction
speed
MPH
gust
MPH
rain 1hr
in
rain 24hr
in
rain mn
in
humidity
%
barometer
mb
20260507104503 56 124 3.0 7.0 0.00 0.00 0.00 62 1013.5
20260507103603 55 107 5.0 11.0 0.00 0.00 0.00 58 1013.5
20260507102703 57 141 3.0 9.0 0.00 0.00 0.00 57 1013.6
20260507101824 56 161 3.0 10.0 0.00 0.00 0.00 57 1013.6
20260507100903 58 144 3.0 8.0 0.00 0.00 0.00 57 1013.6
20260507100024 55 129 4.0 10.0 0.00 0.00 0.00 64 1013.6
20260507095403 54 120 5.0 11.0 0.00 0.00 0.00 63 1013.7
20260507094503 55 123 5.0 11.0 0.00 0.00 0.00 59 1013.8
20260507093603 55 133 4.0 12.0 0.00 0.00 0.00 65 1013.6
20260507092703 55 126 4.0 8.0 0.00 0.00 0.00 64 1013.6
20260507091803 55 180 3.0 8.0 0.00 0.00 0.00 69 1013.7
20260507090903 55 184 3.0 7.0 0.00 0.00 0.00 68 1013.7
20260507090004 55 194 3.0 6.0 0.00 0.00 0.00 67 1013.8
20260507085403 55 191 2.0 8.0 0.00 0.00 0.00 68 1013.7
20260507084503 54 155 3.0 9.0 0.00 0.00 0.00 71 1013.8
20260507083603 54 117 2.0 6.0 0.00 0.00 0.00 74 1013.7
20260507082703 53 117 2.0 6.0 0.00 0.00 0.00 77 1013.7
20260507081824 52 116 1.0 4.0 0.00 0.00 0.00 81 1013.7
20260507080903 50 115 2.0 4.0 0.00 0.00 0.00 84 1013.8
20260507080024 49 115 3.0 7.0 0.00 0.00 0.00 84 1013.8
20260507075403 50 113 3.0 8.0 0.00 0.00 0.00 84 1013.7
20260507074503 50 111 2.0 7.0 0.00 0.00 0.00 87 1013.7
20260507073603 49 112 3.0 8.0 0.00 0.00 0.00 88 1013.7
20260507072703 49 111 3.0 6.0 0.00 0.00 0.00 90 1013.6
20260507071824 48 111 2.0 6.0 0.00 0.00 0.00 91 1013.6
20260507070903 47 111 2.0 6.0 0.00 0.00 0.00 91 1013.7
20260507070024 47 107 2.0 4.0 0.00 0.00 0.00 91 1013.6
20260507065424 47 89 3.0 8.0 0.00 0.00 0.00 92 1013.6
20260507064524 47 20 1.0 4.0 0.00 0.00 0.00 91 1013.6
20260507063603 46 20 2.0 4.0 0.00 0.00 0.00 92 1013.5
20260507062703 46 20 1.0 4.0 0.00 0.00 0.00 92 1013.5
20260507061803 46 20 1.0 4.0 0.00 0.00 0.00 92 1013.3
20260507060903 46 20 1.0 5.0 0.00 0.00 0.00 92 1013.3
20260507060003 46 19 1.0 4.0 0.00 0.00 0.00 92 1013.2
20260507055424 45 19 2.0 4.0 0.00 0.00 0.00 92 1013.1
20260507054503 45 19 1.0 4.0 0.00 0.00 0.00 92 1013.2
20260507053603 45 19 2.0 4.0 0.00 0.00 0.00 92 1013.1
20260507052724 45 19 1.0 3.0 0.00 0.00 0.00 92 1013.1
20260507051803 45 19 1.0 2.0 0.00 0.00 0.00 92 1013.1
20260507050903 45 19 1.0 3.0 0.00 0.00 0.00 92 1013.1
20260507050005 45 19 1.0 3.0 0.00 0.00 0.00 92 1013.1
20260507045403 45 0 0.0 2.0 0.00 0.00 0.00 92 1013.0
20260507044503 45 0 0.0 2.0 0.00 0.00 0.00 91 1013.0
20260507043603 45 0 0.0 2.0 0.00 0.00 0.00 91 1013.0
20260507042724 45 19 1.0 4.0 0.00 0.00 0.00 91 1012.9
20260507041803 45 19 1.0 4.0 0.00 0.00 0.00 91 1012.9
20260507040903 45 0 0.0 1.0 0.00 0.00 0.00 91 1013.0
20260507040003 45 0 0.0 2.0 0.00 0.00 0.00 91 1012.9
20260507035424 45 19 1.0 3.0 0.00 0.00 0.00 91 1012.9
20260507034524 45 0 0.0 0.0 0.00 0.00 0.00 91 1012.9
20260507033603 45 0 0.0 0.0 0.00 0.00 0.00 91 1012.9
20260507032703 45 0 0.0 0.0 0.00 0.00 0.00 91 1012.9
20260507031803 45 0 0.0 0.0 0.00 0.00 0.00 91 1013.0
20260507030903 45 0 0.0 2.0 0.00 0.00 0.00 91 1012.9
20260507030003 45 0 0.0 2.0 0.00 0.00 0.00 91 1012.9
20260507025403 45 0 0.0 2.0 0.00 0.00 0.00 91 1013.0
20260507024503 45 0 0.0 2.0 0.00 0.00 0.00 91 1012.9
20260507023603 45 0 0.0 3.0 0.00 0.00 0.00 91 1012.9
20260507022703 45 0 0.0 2.0 0.00 0.00 0.00 91 1012.9
20260507021803 45 19 2.0 4.0 0.00 0.00 0.00 91 1012.9
20260507020924 45 19 2.0 4.0 0.00 0.00 0.00 91 1012.8
20260507020003 45 20 2.0 4.0 0.00 0.00 0.00 91 1012.8
20260507015403 45 20 1.0 3.0 0.00 0.00 0.00 91 1012.9
20260507014503 44 20 1.0 3.0 0.00 0.00 0.00 91 1012.9
20260507013603 44 0 0.0 0.0 0.00 0.00 0.00 91 1012.9
20260507012703 44 0 0.0 1.0 0.00 0.00 0.00 91 1012.9
20260507011803 44 0 0.0 1.0 0.00 0.00 0.00 91 1012.9
20260507010924 44 0 0.0 2.0 0.00 0.00 0.00 91 1013.0
20260507010003 44 0 0.0 0.0 0.00 0.00 0.00 91 1013.0
20260507005403 44 0 0.0 0.0 0.00 0.00 0.00 90 1012.9
20260507004503 44 0 0.0 1.0 0.00 0.00 0.00 90 1013.0
20260507003624 43 0 0.0 1.0 0.00 0.00 0.00 90 1013.0
20260507002703 44 0 0.0 2.0 0.00 0.00 0.00 89 1013.0
20260507001803 44 0 0.0 2.0 0.00 0.00 0.00 89 1012.9
20260507000903 44 20 1.0 3.0 0.00 0.00 0.00 89 1012.9
20260507000003 44 20 1.0 4.0 0.00 0.00 0.00 89 1012.9
20260506235403 44 20 2.0 4.0 0.00 0.00 0.00 89 1012.9
20260506234503 45 26 3.0 8.0 0.00 0.00 0.00 89 1012.8
20260506233624 45 31 3.0 5.0 0.00 0.00 0.00 89 1012.8
20260506232703 45 31 3.0 6.0 0.00 0.00 0.00 89 1012.8
20260506231803 45 39 3.0 9.0 0.00 0.00 0.00 88 1012.9
20260506230903 45 45 4.0 9.0 0.00 0.00 0.00 88 1012.9
20260506230004 45 24 4.0 9.0 0.00 0.00 0.00 88 1012.9
20260506225403 45 11 4.0 9.0 0.00 0.00 0.00 88 1013.0
20260506224503 45 14 3.0 8.0 0.00 0.00 0.00 88 1012.9
20260506223603 45 27 2.0 5.0 0.00 0.00 0.00 88 1013.0
20260506222703 45 28 2.0 8.0 0.00 0.00 0.00 88 1013.0
20260506221803 45 28 2.0 6.0 0.00 0.00 0.00 88 1012.9
20260506220903 45 19 3.0 8.0 0.00 0.00 0.00 88 1012.9
20260506220003 45 344 3.0 6.0 0.00 0.00 0.00 88 1012.9
20260506215424 45 342 3.0 6.0 0.00 0.00 0.00 88 1013.0
20260506214524 45 16 4.0 9.0 0.00 0.00 0.00 88 1012.9
20260506213603 45 28 4.0 11.0 0.00 0.00 0.00 87 1012.8
20260506212703 46 16 3.0 10.0 0.00 0.00 0.00 87 1012.8
20260506211824 46 19 3.0 9.0 0.00 0.00 0.00 87 1012.8
20260506210903 46 42 3.0 8.0 0.00 0.00 0.00 87 1012.8
20260506210003 46 34 4.0 11.0 0.00 0.00 0.00 87 1012.8
20260506205403 46 31 5.0 11.0 0.00 0.00 0.00 86 1012.7
20260506204503 46 25 5.0 11.0 0.00 0.00 0.00 86 1012.6
20260506203603 46 20 4.0 10.0 0.00 0.00 0.00 86 1012.5
20260506202703 46 12 3.0 7.0 0.00 0.00 0.00 86 1012.5
20260506201803 46 12 2.0 8.0 0.00 0.00 0.00 85 1012.5
20260506200903 46 14 4.0 9.0 0.00 0.00 0.00 85 1012.4
20260506200024 46 25 4.0 11.0 0.00 0.00 0.00 84 1012.3
20260506195403 46 24 5.0 11.0 0.00 0.00 0.00 84 1012.3
20260506194503 46 21 4.0 11.0 0.00 0.00 0.00 83 1012.2
20260506193603 47 16 4.0 10.0 0.00 0.00 0.00 83 1012.2
20260506192703 47 12 6.0 11.0 0.00 0.00 0.00 82 1012.2
20260506191803 47 26 4.0 10.0 0.00 0.00 0.00 82 1012.1
20260506190903 47 359 3.0 6.0 0.00 0.00 0.00 81 1012.1
20260506190003 48 16 4.0 10.0 0.00 0.00 0.00 81 1012.1
20260506185403 48 3 5.0 10.0 0.00 0.00 0.00 81 1012.1
20260506184503 48 11 5.0 13.0 0.00 0.00 0.00 80 1012.0
20260506183603 48 10 4.0 13.0 0.00 0.00 0.00 80 1011.9
20260506182703 48 23 5.0 13.0 0.00 0.00 0.00 78 1011.9
20260506181803 49 348 3.0 9.0 0.00 0.00 0.00 78 1011.8
20260506180903 49 336 4.0 10.0 0.00 0.00 0.00 76 1011.7
20260506180004 50 341 4.0 9.0 0.00 0.00 0.00 76 1011.6
20260506175403 50 349 4.0 12.0 0.00 0.00 0.00 75 1011.5
20260506174503 50 6 4.0 12.0 0.00 0.00 0.00 74 1011.4
20260506173603 50 357 4.0 12.0 0.00 0.00 0.00 73 1011.5
20260506172703 51 356 4.0 9.0 0.00 0.00 0.00 73 1011.3
20260506171803 51 345 4.0 11.0 0.00 0.00 0.00 72 1011.3
20260506170903 51 340 4.0 11.0 0.00 0.00 0.00 72 1011.2
20260506170003 51 9 4.0 12.0 0.00 0.00 0.00 71 1011.3
20260506165403 51 3 4.0 12.0 0.00 0.00 0.00 70 1011.3
20260506164503 51 7 5.0 11.0 0.00 0.00 0.00 69 1011.2
20260506163624 52 349 3.0 9.0 0.00 0.00 0.00 68 1011.1
20260506162703 52 359 4.0 11.0 0.00 0.00 0.00 66 1011.1
20260506161803 52 355 3.0 12.0 0.00 0.00 0.00 66 1011.1
20260506160903 52 22 4.0 12.0 0.00 0.00 0.00 66 1011.1
20260506160024 52 9 4.0 10.0 0.00 0.00 0.00 66 1011.2
20260506155403 52 338 4.0 10.0 0.00 0.00 0.00 66 1011.1
20260506154503 52 350 5.0 11.0 0.00 0.00 0.00 66 1011.1
20260506153624 53 1 4.0 9.0 0.00 0.00 0.00 64 1011.1
20260506152724 53 10 3.0 9.0 0.00 0.00 0.00 60 1011.1
20260506151803 52 13 4.0 10.0 0.00 0.00 0.00 60 1011.1
20260506150903 52 14 5.0 11.0 0.00 0.00 0.00 61 1011.1
20260506150003 52 25 4.0 11.0 0.00 0.00 0.00 62 1011.2
20260506145403 53 29 5.0 11.0 0.00 0.00 0.00 61 1011.2
20260506144503 53 13 4.0 11.0 0.00 0.00 0.00 61 1011.2
20260506143603 53 9 4.0 10.0 0.00 0.00 0.00 57 1011.2
20260506142703 53 28 4.0 10.0 0.00 0.00 0.00 58 1011.2
20260506141803 53 355 4.0 10.0 0.00 0.00 0.00 58 1011.2
20260506140903 53 16 4.0 10.0 0.00 0.00 0.00 59 1011.2
20260506140003 52 10 4.0 11.0 0.00 0.00 0.00 62 1011.3
20260506135403 52 14 6.0 13.0 0.00 0.00 0.00 61 1011.3
20260506134503 52 329 5.0 13.0 0.00 0.00 0.00 62 1011.3
20260506133603 52 332 5.0 12.0 0.00 0.00 0.00 65 1011.3
20260506132703 52 357 4.0 11.0 0.00 0.00 0.00 63 1011.3
20260506131803 53 330 3.0 11.0 0.00 0.00 0.00 64 1011.3
20260506130903 52 345 4.0 10.0 0.00 0.00 0.00 62 1011.4
20260506130003 52 343 5.0 11.0 0.00 0.00 0.00 64 1011.3
20260506125424 52 325 6.0 12.0 0.00 0.00 0.00 63 1011.3
20260506124503 52 318 5.0 13.0 0.00 0.00 0.00 65 1011.3
20260506123603 52 349 5.0 12.0 0.00 0.00 0.00 64 1011.3
20260506122724 53 345 4.0 10.0 0.00 0.00 0.00 66 1011.3
20260506121824 52 332 5.0 11.0 0.00 0.00 0.00 66 1011.3
20260506120924 52 335 5.0 11.0 0.00 0.00 0.00 66 1011.3
20260506120003 52 317 5.0 12.0 0.00 0.00 0.00 66 1011.4
20260506115403 52 323 5.0 13.0 0.00 0.00 0.00 67 1011.5
20260506114503 52 358 4.0 10.0 0.00 0.00 0.00 69 1011.5
20260506113603 51 327 4.0 12.0 0.00 0.00 0.00 68 1011.5
20260506112703 51 314 4.0 12.0 0.00 0.00 0.00 68 1011.5
20260506111803 50 344 5.0 12.0 0.00 0.00 0.00 68 1011.5
20260506110903 50 333 4.0 11.0 0.00 0.00 0.00 69 1011.6
20260506110003 50 6 4.0 13.0 0.00 0.00 0.00 70 1011.6
20260506105424 50 19 5.0 13.0 0.00 0.00 0.00 70 1011.6